PAGEOS 1 DEB, 2256

Orbit data source: Space-Track

PAGEOS 1 DEB, 2256 is space debris in LEO originally from a launch on Fri, 24 Jun 1966 UTC launched from the Air Force Western Test Range (AFWTR). Debris objects in space refer to the collection of defunct objects orbiting the Earth. Examples of debris include non-operational satellites, rocket bodies, and fragments generated from explosions, collisions, or faulty payload assembly.

Loading next visibility...
Identifier
2256, 1966-056C
Orbit
LEO
Country
Flag of USUS
Related business
Manufacturer
Goodyear
Mission
Spacecraft
Bus & Motor
ECHO CANISTER, Unknown motor
Mass
9 kg wet, 9 kg dry
Launch date (UTC)
1966-06-24 (59 years ago)
Launch vehicle
Unknown
Launch site
Air Force Western Test Range (AFWTR)
Object type
Payload
Rocket body
Debris
Shape & HBR
Unknown
Radar Cross Section
Large (>1 m²)

Expand to show TLE details & history
Last TLE update: 4 days ago

TLE from 4 days ago
0 PAGEOS 1 DEB
1 02256U 66056C   25307.02132427 -.00000036  00000-0 -36846-1 0  9995
2 02256  86.9432 179.3425 0025752 358.7842   1.2899  7.93548253720530
Epoch: 2025-11-03T00:30Z
TLE epoch observation values (Epoch: 2025-11-03T00:30:42.416Z)
Latitude
0.00002°
Longitude
129.13709°
Altitude
4,214.022 km
Speed
6.143 km/s
True Right ascension
11h 57m 22s
True Declination
0° 00' 00"
Sunlit
Object was in daylight at epoch
Visualization orbit readout
Latitude
Unknown
Longitude
Unknown
Altitude
Unknown
Speed
Unknown
Apparent Right ascension
Unknown
Apparent Declination
Unknown
Sunlit
N/A
Visualization observer readout
Local Sidereal Time
00:38:46
Azimuth
Unknown
Elevation
Unknown
Doppler factor
Unknown
Orbital elements
Apogee altitude
4,264.585 km
Perigee altitude
4,209.912 km
Semi-major axis
10,615.386 km
Eccentricity
0.00258
Inclination
86.9432°
RAAN
179.3425°
Arg. of periapsis
358.7842°
True anomaly
1.29656°
Mean anomaly
1.2899°
Eccentric anomaly
1.29323°
Mean motion
1.98445 °/min
Orbital period
181.41 mins
BSTAR
-0.036846
Loading maneuver chart data...
Computing Atmospheric mass density...

Documentation

Showing up to 5 results
|